Regional Weather Roundup
Issued by NWS State College, PA

Home | Current Version | Previous Version | Text Only | Print | Product List | Glossary On
Versions: 1 2 3 4 5 6 7 8 9 10 11 12 13 14 15 16 17 18 19 20 21 22 23 24 25 26 27 28 29 30 31 32 33 34 35 36 37 38 39 40 41 42 43 44 45 46 47 48 49 50
810
ASUS41 KCTP 031003
RWRCTP

REGIONAL WEATHER ROUNDUP
NATIONAL WEATHER SERVICE STATE COLLEGE PA
600 AM EDT TUE MAY 03 2016

Note: "fair" indicates few or no clouds below 12,000 feet with no
significant weather and/or obstructions to visibility.

* = STATION THAT DOES NOT REPORT PRECIPITATION /E.G. RAIN...SNOW...ETC/
    THUNDER OR FOG.

PAZ002>004-007>009-013>016-020>023-029>032-031100-
WESTERN PENNSYLVANIA

CITY           SKY/WX    TMP DP  RH WIND       PRES   REMARKS
ERIE           CLOUDY    44  41  89 NE3       29.91F
MEADVILLE      CLOUDY    40  40 100 N5        29.89S FOG
FRANKLIN*      CLOUDY    45  43  93 NW5       29.90R
NEW CASTLE     CLOUDY    44  42  93 N6        29.90F
BEAVER COUNTY  NOT AVBL
BUTLER*        CLOUDY    46  43  87 NW5       29.89F
PITTSBURGH INT CLOUDY    48  43  82 NW7       29.87S
PITTSBURGH     CLOUDY    48  44  86 NW3       29.86S
INDIANA*       CLOUDY    52  50  93 CALM      29.89S
LATROBE        CLOUDY    50  50 100 NW5       29.87S
WASHINGTON CO* CLOUDY    48  43  81 CALM      29.88S
$$

PAZ004>006-010>012-017>019-024>028-033>037-041-042-045-046-049>053-031100-
CENTRAL PENNSYLVANIA

CITY           SKY/WX    TMP DP  RH WIND       PRES   REMARKS
BRADFORD       CLOUDY    43  42  97 E3        29.86S FOG
DUBOIS         CLOUDY    48  46  93 CALM      29.85R
CLEARFIELD     CLOUDY    50  46  86 E7        29.85S
JOHNSTOWN      FOG       52  48  86 W5        29.84S VSB 1/2
ALTOONA        LGT RAIN  54  53  97 NE3       29.84S FOG
STATE COLLEGE  CLOUDY    48  46  93 NE7       29.85S
WILLIAMSPORT   CLOUDY    49  45  86 W5        29.87S
SELINSGROVE    LGT RAIN  51  48  89 N3        29.86R
FT INDIANTOWN  RAIN      54  54 100 NE6       29.83S FOG
CAPITAL CITY   LGT RAIN  57  53  86 NE5       29.82S
HARRISBURG     LGT RAIN  56  53  90 NE8       29.81S FOG
YORK           LGT RAIN  58  56  93 NE5       29.80S FOG
$$

PAZ038>040-043-044-047-048-054-055-060>062-067>071-031100-
EASTERN PENNSYLVANIA

CITY           SKY/WX    TMP DP  RH WIND       PRES   REMARKS
SCRANTON       LGT RAIN  48  46  93 N3        29.87R FOG
MOUNT POCONO   RAIN      47  44  90 E9        29.85S FOG
ALLENTOWN      CLOUDY    53  50  89 NE6       29.85S
QUAKERTOWN*    CLOUDY    54  54 100 E5        29.84S
READING        LGT RAIN  53  51  93 NE9       29.82S
LANCASTER      LGT RAIN  56  55  97 E10       29.81F
COATESVILLE    DRIZZLE   55  55 100 E10       29.82F
POTTSTOWN      CLOUDY    54  54 100 E3        29.84S
BLUE BELL      CLOUDY    54  54 100 E5        29.82F
DOYLESTOWN     LGT RAIN  53  53 100 CALM      29.83R
WILLOW GROVE   NOT AVBL
NORTH PHILA    RAIN      57  55  93 NE7       29.85S FOG
PHILADELPHIA   LGT RAIN  57  53  86 NE5       29.83S
$$




USA.gov is the U.S. government's official web portal to all federal, state and local government web resources and services.